When you browse on this site, cookies collect data to enhance your experience and personalize the content and advertising you see.
Visit our Privacy Policy to learn more. By continuing to use the site, you agree to this use of cookies and data.
  • In Hungary
  • List of Countries
  • For 7 days
  • Water Temperature
  • Weather Map
  • News
  • Weather Widgets
  • user-avatar
    Login

    Hourly Weather Kobylec

    Today, 20 August, Tuesday

    Time Temperature Precipitation Wind Pressure Humidity
    00:00 +16°C° 0 mm 1 mps 757 mmHg 83%
    01:00 +16°C° 0 mm 1 mps 757 mmHg 84%
    02:00 +16°C° 0 mm 1 mps 757 mmHg 85%
    03:00 +16°C° 0 mm 1 mps 757 mmHg 86%
    04:00 +15°C° 0 mm 1 mps 758 mmHg 87%
    05:00 +16°C° 0 mm 1 mps 758 mmHg 83%
    06:00 +19°C° 0 mm 1 mps 758 mmHg 79%
    07:00 +20°C° 0 mm 1 mps 758 mmHg 75%
    08:00 +21°C° 0 mm 1 mps 759 mmHg 67%
    09:00 +23°C° 0 mm 2 mps 759 mmHg 59%
    10:00 +25°C° 0 mm 2 mps 759 mmHg 51%
    11:00 +25°C° 0 mm 2 mps 759 mmHg 49%
    12:00 +26°C° 0 mm 2 mps 759 mmHg 46%
    13:00 +26°C° 0 mm 2 mps 759 mmHg 44%
    14:00 +26°C° 0 mm 2 mps 758 mmHg 44%
    15:00 +26°C° 0 mm 1 mps 758 mmHg 44%
    16:00 +26°C° 0 mm 1 mps 758 mmHg 43%
    17:00 +25°C° 0 mm 1 mps 758 mmHg 47%
    18:00 +24°C° 0 mm 1 mps 758 mmHg 51%
    19:00 +23°C° 0 mm 2 mps 758 mmHg 54%
    20:00 +21°C° 0.2 mm 2 mps 758 mmHg 59%
    21:00 +20°C° 0.2 mm 2 mps 758 mmHg 64%
    22:00 +19°C° 0.2 mm 2 mps 759 mmHg 68%
    23:00 +18°C° 1.7 mm 2 mps 759 mmHg 76%

    Tomorrow, 21 August, Wednesday

    Time Temperature Precipitation Wind Pressure Humidity
    00:00 +17°C° 1.7 mm 3 mps 759 mmHg 83%
    01:00 +15°C° 1.7 mm 4 mps 759 mmHg 91%
    02:00 +15°C° 1.8 mm 4 mps 759 mmHg 92%
    03:00 +16°C° 1.8 mm 3 mps 759 mmHg 92%
    04:00 +16°C° 1.8 mm 3 mps 759 mmHg 93%
    05:00 +16°C° 0.7 mm 3 mps 760 mmHg 91%
    06:00 +16°C° 0.7 mm 2 mps 760 mmHg 90%
    07:00 +16°C° 0.7 mm 2 mps 761 mmHg 88%
    08:00 +18°C° 0 mm 3 mps 761 mmHg 81%
    09:00 +19°C° 0 mm 3 mps 761 mmHg 75%
    10:00 +20°C° 0 mm 4 mps 762 mmHg 68%
    11:00 +21°C° 0.1 mm 4 mps 762 mmHg 63%
    12:00 +22°C° 0.1 mm 4 mps 762 mmHg 58%
    13:00 +23°C° 0.1 mm 4 mps 762 mmHg 53%
    14:00 +24°C° 0.1 mm 3 mps 762 mmHg 52%
    15:00 +24°C° 0.1 mm 3 mps 762 mmHg 51%
    16:00 +24°C° 0.1 mm 3 mps 762 mmHg 51%
    17:00 +23°C° 0 mm 2 mps 762 mmHg 55%
    18:00 +20°C° 0 mm 2 mps 762 mmHg 60%
    19:00 +20°C° 0 mm 1 mps 762 mmHg 65%
    20:00 +19°C° 0 mm 1 mps 762 mmHg 68%
    21:00 +18°C° 0 mm 1 mps 763 mmHg 71%
    22:00 +18°C° 0 mm 1 mps 763 mmHg 74%
    23:00 +16°C° 0 mm 2 mps 763 mmHg 76%

    Day after tomorrow, 22 August, Thursday

    Time Temperature Precipitation Wind Pressure Humidity
    00:00 +16°C° 0 mm 2 mps 763 mmHg 78%
    01:00 +15°C° 0 mm 2 mps 763 mmHg 80%
    02:00 +15°C° 0 mm 2 mps 763 mmHg 81%
    03:00 +15°C° 0 mm 2 mps 763 mmHg 81%
    04:00 +14°C° 0 mm 2 mps 763 mmHg 81%
    05:00 +15°C° 0 mm 2 mps 763 mmHg 79%
    06:00 +16°C° 0 mm 2 mps 763 mmHg 76%
    07:00 +17°C° 0 mm 2 mps 764 mmHg 73%
    08:00 +19°C° 0 mm 2 mps 764 mmHg 65%
    09:00 +21°C° 0 mm 2 mps 764 mmHg 58%
    10:00 +23°C° 0 mm 2 mps 764 mmHg 51%
    11:00 +24°C° 0 mm 2 mps 763 mmHg 48%
    12:00 +24°C° 0 mm 2 mps 763 mmHg 46%
    13:00 +25°C° 0 mm 2 mps 763 mmHg 43%
    14:00 +25°C° 0 mm 1 mps 763 mmHg 44%
    15:00 +25°C° 0 mm 1 mps 762 mmHg 44%
    16:00 +25°C° 0 mm 1 mps 762 mmHg 45%
    17:00 +23°C° 0 mm 1 mps 762 mmHg 48%
    18:00 +22°C° 0 mm 1 mps 762 mmHg 52%
    19:00 +21°C° 0 mm 1 mps 762 mmHg 55%
    20:00 +20°C° 0 mm 1 mps 762 mmHg 57%
    21:00 +20°C° 0 mm 1 mps 762 mmHg 59%
    22:00 +18°C° 0 mm 2 mps 763 mmHg 61%
    23:00 +18°C° 0 mm 2 mps 763 mmHg 64%

    23 August, Friday

    Time Temperature Precipitation Wind Pressure Humidity
    00:00 +17°C° 0 mm 2 mps 763 mmHg 66%
    01:00 +18°C° 0 mm 1 mps 763 mmHg 68%
    02:00 +16°C° 0 mm 1 mps 763 mmHg 70%
    03:00 +16°C° 0 mm 1 mps 763 mmHg 72%
    04:00 +16°C° 0 mm 1 mps 763 mmHg 74%
    05:00 +18°C° 0 mm 1 mps 763 mmHg 72%
    06:00 +19°C° 0 mm 1 mps 763 mmHg 69%
    07:00 +20°C° 0 mm 1 mps 763 mmHg 67%
    08:00 +20°C° 0 mm 2 mps 763 mmHg 61%
    09:00 +23°C° 0 mm 2 mps 763 mmHg 55%
    10:00 +25°C° 0 mm 2 mps 764 mmHg 49%
    11:00 +25°C° 0 mm 2 mps 763 mmHg 46%
    12:00 +26°C° 0 mm 2 mps 763 mmHg 43%
    13:00 +27°C° 0 mm 2 mps 763 mmHg 40%
    14:00 +27°C° 0 mm 2 mps 763 mmHg 39%
    15:00 +27°C° 0 mm 2 mps 762 mmHg 39%
    16:00 +27°C° 0 mm 2 mps 762 mmHg 39%
    17:00 +25°C° 0 mm 2 mps 762 mmHg 44%
    18:00 +24°C° 0 mm 2 mps 762 mmHg 49%
    19:00 +21°C° 0 mm 2 mps 762 mmHg 54%
    20:00 +20°C° 0 mm 2 mps 762 mmHg 55%
    21:00 +20°C° 0 mm 2 mps 762 mmHg 57%
    22:00 +19°C° 0 mm 2 mps 762 mmHg 58%
    23:00 +18°C° 0 mm 2 mps 762 mmHg 60%

    24 August, Saturday

    Time Temperature Precipitation Wind Pressure Humidity
    00:00 +18°C° 0 mm 2 mps 762 mmHg 63%
    01:00 +17°C° 0 mm 2 mps 762 mmHg 65%
    02:00 +17°C° 0 mm 2 mps 762 mmHg 67%
    03:00 +16°C° 0 mm 2 mps 762 mmHg 69%
    04:00 +16°C° 0 mm 2 mps 762 mmHg 71%
    05:00 +17°C° 0 mm 2 mps 762 mmHg 69%
    06:00 +18°C° 0 mm 3 mps 762 mmHg 66%
    07:00 +19°C° 0 mm 3 mps 762 mmHg 63%
    08:00 +20°C° 0 mm 3 mps 762 mmHg 58%
    09:00 +22°C° 0 mm 4 mps 762 mmHg 52%
    10:00 +25°C° 0 mm 4 mps 762 mmHg 47%
    11:00 +25°C° 0 mm 4 mps 761 mmHg 45%
    12:00 +26°C° 0 mm 5 mps 761 mmHg 44%
    13:00 +27°C° 0 mm 5 mps 760 mmHg 43%
    14:00 +27°C° 0 mm 5 mps 760 mmHg 43%
    15:00 +27°C° 0 mm 5 mps 760 mmHg 44%
    16:00 +26°C° 0 mm 5 mps 759 mmHg 44%
    17:00 +25°C° 0 mm 4 mps 759 mmHg 49%
    18:00 +22°C° 0 mm 4 mps 759 mmHg 55%
    19:00 +20°C° 0 mm 3 mps 758 mmHg 60%
    20:00 +20°C° 0 mm 3 mps 758 mmHg 62%
    21:00 +19°C° 0 mm 3 mps 758 mmHg 64%
    22:00 +18°C° 0 mm 3 mps 758 mmHg 66%
    23:00 +18°C° 0 mm 3 mps 758 mmHg 69%

    25 August, Sunday

    Time Temperature Precipitation Wind Pressure Humidity
    00:00 +18°C° 0 mm 3 mps 758 mmHg 71%
    01:00 +17°C° 0 mm 3 mps 757 mmHg 74%
    02:00 +17°C° 0 mm 3 mps 757 mmHg 75%
    03:00 +17°C° 0 mm 3 mps 757 mmHg 77%
    04:00 +17°C° 0 mm 3 mps 756 mmHg 79%
    05:00 +17°C° 0.1 mm 4 mps 756 mmHg 77%
    06:00 +18°C° 0.1 mm 4 mps 756 mmHg 75%
    07:00 +19°C° 0.1 mm 4 mps 756 mmHg 73%
    08:00 +20°C° 0.6 mm 4 mps 756 mmHg 71%
    09:00 +21°C° 0.6 mm 4 mps 756 mmHg 69%
    10:00 +22°C° 0.6 mm 4 mps 755 mmHg 68%
    11:00 +23°C° 0.5 mm 4 mps 755 mmHg 66%
    12:00 +25°C° 0.5 mm 3 mps 755 mmHg 65%
    13:00 +26°C° 0.5 mm 3 mps 754 mmHg 63%
    14:00 +27°C° 0.2 mm 3 mps 754 mmHg 61%
    15:00 +28°C° 0.2 mm 2 mps 754 mmHg 59%
    16:00 +29°C° 0.2 mm 2 mps 754 mmHg 57%
    17:00 +27°C° 0.5 mm 2 mps 753 mmHg 66%
    18:00 +25°C° 0.5 mm 2 mps 753 mmHg 74%
    19:00 +23°C° 0.5 mm 2 mps 753 mmHg 82%
    20:00 +23°C° 0.1 mm 2 mps 753 mmHg 84%
    21:00 +22°C° 0.1 mm 1 mps 753 mmHg 87%
    22:00 +22°C° 0.1 mm 1 mps 754 mmHg 89%
    23:00 +21°C° 0 mm 1 mps 754 mmHg 89%
    Show more